Weather History for KRME - February, 2013

Change the Weather History Date:

Monday, February 11, 2013

  Actual Average Record
Temperature  
Mean Temperature 34 °F -  
Max Temperature 42 °F 31 °F 54 °F (1981)
Min Temperature 26 °F 9 °F -14 °F (2011)
Degree Days  
Heating Degree Days 31    
Moisture  
Dew Point 28 °F    
Average Humidity 79    
Maximum Humidity 93    
Minimum Humidity 47    
Precipitation  
Precipitation 0.18 in - - ()
Sea Level Pressure  
Sea Level Pressure 29.80 in    
Wind  
Wind Speed 10 mph (SSE)    
Max Wind Speed 20 mph    
Max Gust Speed 26 mph    
Visibility 8 miles    
Events Rain    
Averages and records for this station are not official NWS values.
T = Trace of Precipitation, MM = Missing Value Source: NWS Daily Summary

Daily Weather History Graph

Daily Weather History Graph

Search for Another Location

Airport or City:

Trip Planner

Search our weather history database for the weather conditions in past years. The results will help you decide how hot, cold, wet, or windy it might be!

Date:

Astronomy

Feb. 11, 2013 Rise Set
Actual Time 7:04 AM EST 5:27 PM EST
Civil Twilight 6:35 AM EST 5:57 PM EST
Nautical Twilight 6:01 AM EST 6:30 PM EST
Astronomical Twilight 5:28 AM EST 7:03 PM EST
Moon 7:23 AM EST (2/11) 7:26 PM EST (2/11)
Length of Visible Light 11h 21m
Length of Day
10h 22m
Waxing Crescent, 3% of the Moon is Illuminated
Feb 11
Waxing Crescent
Feb 17
First Quarter
Feb 25
Full
Mar 4
Last Quarter
Mar 11
New

Hourly Weather History & Observations

Time (EST) Temp. Windchill Dew Point Humidity Pressure Visibility Wind Dir Wind Speed Gust Speed Precip Events Conditions
12:53 AM 26.1 °F 15.6 °F 8.1 °F 47% 30.16 in 10.0 mi ESE 11.5 mph - N/A   Overcast
1:53 AM 26.1 °F 16.8 °F 9.0 °F 49% 30.14 in 10.0 mi ESE 9.2 mph - N/A   Scattered Clouds
2:53 AM 27.0 °F 16.1 °F 9.0 °F 47% 30.09 in 10.0 mi ESE 12.7 mph - N/A   Scattered Clouds
3:53 AM 27.0 °F 16.1 °F 10.0 °F 49% 30.05 in 10.0 mi ESE 12.7 mph - N/A   Overcast
4:53 AM 28.9 °F 18.6 °F 12.0 °F 49% 30.01 in 10.0 mi ESE 12.7 mph - N/A   Overcast
5:53 AM 28.9 °F 18.6 °F 15.1 °F 56% 29.95 in 10.0 mi ESE 12.7 mph - N/A   Overcast
6:53 AM 30.0 °F 21.1 °F 21.0 °F 69% 29.93 in 10.0 mi ESE 10.4 mph - 0.00 in   Overcast
7:12 AM 30.0 °F 23.2 °F 21.9 °F 72% 29.92 in 8.0 mi SE 6.9 mph - 0.01 in Rain Light Freezing Rain
7:53 AM 30.0 °F 22.4 °F 27.0 °F 88% 29.93 in 3.0 mi SE 8.1 mph - 0.04 in Rain Light Freezing Rain
8:13 AM 30.0 °F 21.7 °F 28.0 °F 92% 29.89 in 3.0 mi ESE 9.2 mph - 0.02 in Rain Light Freezing Rain
8:53 AM 32.0 °F 24.8 °F 28.9 °F 88% 29.89 in 8.0 mi ESE 8.1 mph - 0.02 in Rain Light Freezing Rain
9:40 AM 32.0 °F 24.2 °F 28.9 °F 88% 29.85 in 7.0 mi ESE 9.2 mph - 0.01 in   Overcast
9:53 AM 32.0 °F 24.2 °F 30.0 °F 92% 29.86 in 6.0 mi ESE 9.2 mph - 0.01 in   Overcast
10:53 AM 33.1 °F 24.9 °F 30.0 °F 89% 29.82 in 10.0 mi East 10.4 mph - N/A   Overcast
11:53 AM 34.0 °F 26.0 °F 30.9 °F 89% 29.78 in 10.0 mi East 10.4 mph - 0.00 in   Overcast
12:53 PM 36.0 °F 29.0 °F 33.1 °F 89% 29.73 in 10.0 mi East 9.2 mph - 0.01 in   Overcast
1:53 PM 39.0 °F 32.3 °F 34.0 °F 82% 29.70 in 10.0 mi ESE 10.4 mph - N/A   Mostly Cloudy
2:11 PM 39.0 °F 31.8 °F 35.1 °F 86% 29.67 in 10.0 mi ESE 11.5 mph - N/A   Partly Cloudy
2:53 PM 41.0 °F 35.8 °F 36.0 °F 82% 29.66 in 10.0 mi SE 8.1 mph - N/A   Mostly Cloudy
3:19 PM 42.1 °F 35.7 °F 36.0 °F 79% 29.63 in 10.0 mi SSE 11.5 mph - N/A   Overcast
3:53 PM 41.0 °F 35.2 °F 35.1 °F 79% 29.64 in 10.0 mi SSE 9.2 mph - N/A   Overcast
4:11 PM 41.0 °F 37.1 °F 35.1 °F 79% 29.62 in 10.0 mi SSE 5.8 mph - N/A   Overcast
4:53 PM 41.0 °F 39.0 °F 36.0 °F 82% 29.65 in 10.0 mi SW 3.5 mph - 0.00 in Rain Light Rain
5:53 PM 39.9 °F 33.9 °F 37.0 °F 89% 29.68 in 5.0 mi West 9.2 mph - 0.04 in Rain Light Rain
6:00 PM 39.0 °F 32.3 °F 37.0 °F 93% 29.68 in 6.0 mi West 10.4 mph - 0.01 in Rain Rain
6:06 PM 39.0 °F 31.4 °F 37.0 °F 93% 29.70 in 7.0 mi West 12.7 mph - 0.01 in Rain Light Rain
6:39 PM 37.0 °F 28.9 °F 35.1 °F 93% 29.72 in 8.0 mi West 12.7 mph - 0.04 in Rain Light Rain
6:48 PM 37.4 °F 27.2 °F 33.8 °F 87% 29.72 in 6.0 mi West 19.6 mph 26.5 mph 0.04 in Rain Light Rain
6:53 PM 36.0 °F 26.0 °F 33.1 °F 89% 29.74 in 5.0 mi West 17.3 mph 26.5 mph 0.05 in Rain Rain
7:27 PM 35.1 °F 29.3 °F 33.1 °F 92% 29.72 in 10.0 mi West 6.9 mph - 0.01 in   Overcast
7:53 PM 35.1 °F 28.6 °F 32.0 °F 89% 29.73 in 9.0 mi West 8.1 mph - 0.01 in   Overcast
8:53 PM 35.1 °F 30.1 °F 32.0 °F 89% 29.73 in 8.0 mi WSW 5.8 mph - N/A   Overcast
9:53 PM 35.1 °F 27.4 °F 30.9 °F 85% 29.73 in 10.0 mi West 10.4 mph - N/A   Overcast
10:53 PM 35.1 °F 30.1 °F 28.0 °F 76% 29.72 in 10.0 mi West 5.8 mph - N/A   Overcast
11:53 PM 35.1 °F 30.1 °F 27.0 °F 72% 29.71 in 10.0 mi WSW 5.8 mph - 0.00 in   Overcast